QPF
0.00 0.00 0.00 0.00 0.00 0.01 0.00 0.06 0.07 0.06 0.08 0.06 0.07 0.04 0.10 0.07 0.15 0.05 0.00 0.01 0.03 0.02 0.01 0.01 0.01 0.04 0.02 0.04 0.03 0.03 0.02 0.00 0.00 0.01 0.02 0.00 0.00 0.00 0.00 0.01 0.00 0.00 0.00
0.00 0.00 0.00 0.00 0.00 0.00 0.00 0.00 0.05 0.08 0.03 0.06 0.02 0.01 0.05 0.03 0.10 0.05 0.01 0.02 0.01 0.00 0.00 0.01 0.01 0.01 0.06 0.01 0.02 0.05 0.04 0.02 0.02 0.05 0.11 0.04 0.01 0.00 0.01 0.00 0.00 0.00 0.00
0.00 0.00 0.00 0.00 0.00 0.00 0.00 0.00 0.00 0.02 0.03 0.04 0.10 0.14 0.10 0.07 0.10 0.08 0.04 0.03 0.01 0.00 0.00 0.01 0.00 0.00 0.04 0.00 0.01 0.03 0.07 0.06 0.06 0.06 0.08 0.08 0.04 0.00 0.01 0.00 0.00 0.00 0.00
0.00 0.00 0.00 0.00 0.00 0.00 0.04 0.03 0.00 0.00 0.00 0.00 0.11 0.06 0.08 0.07 0.04 0.02 0.06 0.06 0.01 0.01 0.01 0.02 0.03 0.00 0.06 0.04 0.04 0.01 0.06 0.08 0.05 0.05 0.07 0.09 0.10 0.02 0.01 0.00 0.01 0.00 0.00
0.01 0.01 0.00 0.00 0.00 0.00 0.02 0.04 0.00 0.01 0.00 0.00 0.02 0.01 0.01 0.02 0.00 0.03 0.03 0.01 0.02 0.04 0.02 0.05 0.14 0.05 0.04 0.05 0.08 0.10 0.12 0.10 0.07 0.04 0.02 0.09 0.10 0.05 0.01 0.02 0.03 0.01 0.03
0.00 0.07 0.01 0.00 0.00 0.00 0.02 0.03 0.06 0.12 0.05 0.01 0.02 0.01 0.00 0.00 0.00 0.00 0.00 0.00 0.00 0.01 0.00 0.04 0.06 0.01 0.00 0.01 0.00 0.02 0.01 0.02 0.05 0.15 0.09 0.12 0.11 0.02 0.00 0.02 0.03 0.02 0.04
0.02 0.01 0.00 0.00 0.01 0.00 0.00 0.00 0.05 0.09 0.00 0.02 0.04 0.02 0.01 0.00 0.00 0.00 0.00 0.02 0.02 0.01 0.00 0.00 0.03 0.03 0.01 0.01 0.00 0.01 0.02 0.01 0.00 0.02 0.05 0.06 0.02 0.01 0.00 0.01 0.01 0.01 0.03
0.07 0.01 0.00 0.00 0.00 0.00 0.00 0.00 0.00 0.00 0.00 0.00 0.00 0.00 0.00 0.00 0.00 0.00 0.00 0.00 0.00 0.00 0.00 0.00 0.00 0.00 0.01 0.00 0.00 0.00 0.00 0.00 0.00 0.00 0.00 0.00 0.00 0.00 0.00 0.02 0.04 0.00 0.00
0.13 0.05 0.00 0.00 0.00 0.00 0.00 0.00 0.00 0.00 0.00 0.00 0.01 0.01 0.01 0.00 0.01 0.01 0.00 0.01 0.00 0.00 0.00 0.00 0.00 0.00 0.00 0.00 0.00 0.00 0.00 0.00 0.00 0.00 0.00 0.00 0.00 0.00 0.00 0.00 0.00 0.01 0.01
0.05 0.02 0.01 0.01 0.02 0.02 0.01 0.00 0.00 0.01 0.01 0.02 0.02 0.02 0.01 0.01 0.01 0.01 0.01 0.00 0.00 0.00 0.00 0.00 0.00 0.00 0.00 0.01 0.00 0.00 0.00 0.00 0.00 0.00 0.00 0.00 0.00 0.00 0.00 0.00 0.00 0.01 0.00
0.07 0.09 0.07 0.06 0.03 0.07 0.10 0.06 0.03 0.02 0.02 0.02 0.03 0.06 0.05 0.04 0.03 0.02 0.01 0.00 0.00 0.00 0.00 0.00 0.00 0.01 0.01 0.01 0.00 0.00 0.00 0.01 0.01 0.01 0.01 0.00 0.00 0.00 0.00 0.00 0.00 0.00 0.00
0.18 0.15 0.23 0.22 0.22 0.25 0.19 0.21 0.26 0.16 0.12 0.17 0.24 0.18 0.14 0.08 0.05 0.02 0.01 0.00 0.00 0.00 0.00 0.00 0.00 0.01 0.02 0.07 0.09 0.10 0.10 0.09 0.08 0.06 0.03 0.00 0.00 0.00 0.00 0.00 0.00 0.00 0.00
0.05 0.13 0.16 0.27 0.35 0.36 0.27 0.19 0.22 0.25 0.18 0.18 0.10 0.09 0.07 0.03 0.03 0.03 0.01 0.00 0.00 0.00 0.01 0.01 0.02 0.01 0.01 0.04 0.08 0.08 0.09 0.12 0.11 0.02 0.00 0.00 0.00 0.00 0.00 0.00 0.00 0.00 0.00
0.02 0.06 0.08 0.13 0.16 0.13 0.07 0.05 0.06 0.06 0.03 0.02 0.02 0.02 0.03 0.01 0.01 0.02 0.01 0.00 0.00 0.00 0.00 0.00 0.00 0.00 0.00 0.00 0.01 0.01 0.01 0.00 0.00 0.00 0.00 0.00 0.00 0.00 0.00 0.00 0.00 0.00 0.00
0.00 0.00 0.01 0.01 0.00 0.01 0.01 0.01 0.00 0.00 0.00 0.00 0.00 0.00 0.00 0.00 0.00 0.01 0.00 0.00 0.00 0.00 0.00 0.00 0.00 0.00 0.00 0.00 0.00 0.00 0.00 0.00 0.00 0.00 0.00 0.00 0.00 0.00 0.00 0.00 0.00 0.00 0.00
0.00 0.00 0.00 0.00 0.00 0.00 0.00 0.00 0.00 0.00 0.00 0.00 0.00 0.00 0.00 0.00 0.00 0.00 0.00 0.00 0.00 0.00 0.00 0.00 0.00 0.00 0.00 0.00 0.00 0.00 0.00 0.00 0.00 0.00 0.00 0.00 0.00 0.00 0.00 0.00 0.00 0.00 0.00
0.00 0.00 0.00 0.00 0.00 0.00 0.00 0.00 0.00 0.00 0.00 0.00 0.00 0.00 0.00 0.00 0.00 0.00 0.00 0.00 0.00 0.00 0.00 0.00 0.00 0.00 0.00 0.00 0.00 0.00 0.00 0.00 0.00 0.00 0.00 0.00 0.00 0.00 0.00 0.00 0.00 0.00 0.00
0.00 0.00 0.00 0.00 0.00 0.00 0.00 0.00 0.00 0.00 0.00 0.00 0.00 0.00 0.00 0.00 0.00 0.00 0.00 0.00 0.00 0.00 0.00 0.00 0.00 0.00 0.00 0.00 0.00 0.00 0.00 0.00 0.00 0.00 0.00 0.00 0.00 0.00 0.00 0.00 0.00 0.00 0.00
0.00 0.00 0.00 0.00 0.00 0.00 0.00 0.00 0.00 0.00 0.00 0.00 0.00 0.00 0.00 0.00 0.00 0.00 0.00 0.00 0.00 0.00 0.00 0.00 0.00 0.00 0.00 0.00 0.00 0.00 0.00 0.00 0.00 0.00 0.00 0.00 0.00 0.00 0.00 0.00 0.00 0.00 0.00
0.00 0.00 0.00 0.00 0.00 0.00 0.00 0.00 0.00 0.00 0.00 0.00 0.00 0.00 0.00 0.00 0.00 0.00 0.00 0.00 0.00 0.00 0.00 0.00 0.00 0.00 0.00 0.00 0.00 0.00 0.00 0.00 0.00 0.00 0.00 0.00 0.00 0.00 0.00 0.00 0.00 0.00 0.00
0.00 0.00 0.00 0.00 0.00 0.00 0.00 0.00 0.00 0.00 0.00 0.00 0.00 0.00 0.00 0.00 0.00 0.00 0.00 0.00 0.00 0.00 0.00 0.00 0.00 0.00 0.00 0.00 0.00 0.00 0.00 0.00 0.00 0.00 0.00 0.00 0.00 0.00 0.00 0.00 0.00 0.00 0.00
0.00 0.00 0.00 0.00 0.00 0.00 0.00 0.00 0.00 0.00 0.00 0.00 0.00 0.00 0.00 0.00 0.00 0.00 0.00 0.00 0.00 0.00 0.00 0.00 0.00 0.00 0.00 0.00 0.00 0.00 0.00 0.00 0.00 0.00 0.00 0.00 0.00 0.00 0.00 0.00 0.00 0.00 0.00
0.00 0.00 0.00 0.00 0.00 0.00 0.00 0.00 0.00 0.00 0.00 0.00 0.00 0.00 0.00 0.00 0.00 0.00 0.00 0.00 0.00 0.00 0.00 0.00 0.00 0.00 0.00 0.00 0.00 0.00 0.00 0.00 0.00 0.00 0.00 0.00 0.00 0.00 0.00 0.00 0.00 0.00 0.00
0.00 0.00 0.00 0.00 0.00 0.00 0.00 0.00 0.00 0.00 0.00 0.00 0.00 0.00 0.00 0.00 0.00 0.00 0.00 0.00 0.00 0.00 0.00 0.00 0.00 0.00 0.00 0.00 0.00 0.00 0.00 0.00 0.00 0.00 0.00 0.00 0.00 0.00 0.00 0.00 0.00 0.00 0.00
0.00 0.00 0.00 0.00 0.00 0.00 0.00 0.00 0.00 0.00 0.00 0.00 0.00 0.00 0.00 0.00 0.00 0.00 0.00 0.00 0.00 0.00 0.00 0.00 0.00 0.00 0.00 0.00 0.00 0.00 0.00 0.00 0.00 0.00 0.00 0.00 0.00 0.00 0.00 0.00 0.00 0.00 0.00
0.00 0.00 0.00 0.00 0.00 0.00 0.00 0.00 0.00 0.00 0.00 0.00 0.00 0.00 0.00 0.00 0.00 0.00 0.00 0.00 0.00 0.00 0.00 0.00 0.00 0.00 0.00 0.00 0.00 0.00 0.00 0.00 0.00 0.00 0.00 0.00 0.00 0.00 0.00 0.00 0.00 0.00 0.00
MSLP
1012.23 1012.74 1013.29 1013.72 1014.10 1014.67 1014.93 1015.29 1015.61 1015.75 1016.08 1016.20 1016.19 1016.00 1016.33 1016.14 1016.52 1016.72 1016.61 1016.63 1016.82 1016.75 1016.84 1016.81 1016.79 1016.82 1016.26 1016.44 1016.35 1016.50 1016.30 1015.62 1015.06 1015.58 1015.95 1016.98 1017.31 1017.41 1017.62 1018.12 1018.29 1018.09 1018.87
1011.42 1012.23 1012.75 1013.29 1013.64 1013.97 1014.43 1014.74 1015.26 1015.60 1015.77 1016.10 1016.01 1015.80 1016.07 1016.05 1016.21 1016.26 1016.36 1016.03 1016.47 1016.46 1016.44 1016.52 1016.57 1016.16 1016.70 1016.61 1016.23 1016.69 1016.49 1016.40 1016.20 1016.19 1016.76 1016.85 1017.21 1017.95 1018.09 1018.02 1017.80 1017.96 1018.02
1011.08 1011.61 1012.22 1012.82 1013.26 1013.56 1013.91 1014.36 1014.74 1015.19 1015.54 1015.71 1015.73 1015.94 1015.88 1015.97 1016.34 1016.31 1016.35 1016.31 1016.36 1016.33 1016.38 1016.25 1016.23 1016.18 1016.54 1016.08 1016.31 1016.10 1016.43 1016.58 1016.63 1016.55 1016.75 1016.83 1017.33 1018.03 1018.39 1018.21 1018.20 1018.19 1018.40
1011.23 1011.45 1011.87 1012.44 1012.86 1013.17 1013.50 1013.97 1014.29 1014.68 1014.97 1015.15 1015.62 1015.74 1015.80 1015.96 1016.10 1016.09 1016.13 1016.40 1016.22 1016.06 1016.12 1016.05 1016.14 1016.14 1016.15 1016.36 1016.29 1016.43 1016.43 1016.70 1016.71 1016.68 1016.91 1016.99 1017.18 1017.88 1017.83 1017.82 1017.94 1017.93 1017.80
1011.43 1011.54 1011.77 1012.12 1012.57 1012.98 1013.21 1013.68 1013.90 1014.27 1014.60 1014.89 1015.18 1015.40 1015.58 1015.87 1015.86 1016.02 1016.15 1016.15 1016.18 1016.09 1016.04 1016.05 1016.28 1016.43 1016.78 1016.86 1016.52 1016.65 1016.93 1016.86 1017.02 1016.62 1016.28 1016.84 1016.99 1017.55 1017.93 1018.28 1018.24 1018.37 1018.97
1011.13 1011.40 1011.58 1011.92 1012.41 1012.70 1013.08 1013.47 1013.58 1014.19 1014.47 1014.70 1014.82 1015.05 1015.33 1015.55 1016.38 1016.72 1016.53 1016.02 1016.05 1015.93 1015.86 1015.92 1016.42 1016.98 1017.39 1017.43 1017.21 1017.27 1017.52 1017.41 1017.35 1017.35 1017.40 1017.43 1017.37 1017.14 1017.67 1018.14 1018.50 1018.71 1018.87
1011.18 1011.50 1011.99 1012.23 1012.57 1012.72 1013.02 1013.46 1013.44 1013.87 1014.12 1014.31 1014.74 1014.90 1015.08 1015.72 1016.85 1016.89 1016.72 1016.25 1016.09 1016.18 1016.53 1016.34 1016.48 1017.06 1017.33 1017.76 1017.97 1017.97 1018.10 1018.31 1018.23 1017.93 1017.80 1018.22 1017.90 1017.69 1017.55 1017.95 1018.35 1018.51 1018.92
1011.29 1011.83 1012.17 1012.33 1012.64 1012.96 1012.81 1013.43 1013.95 1014.18 1014.33 1014.74 1014.99 1015.28 1015.69 1016.61 1017.16 1017.07 1016.82 1016.45 1016.59 1016.75 1016.92 1017.06 1017.12 1017.36 1017.57 1017.59 1017.87 1018.29 1018.40 1018.58 1018.60 1018.39 1018.70 1018.89 1019.01 1018.76 1018.09 1018.07 1018.34 1019.07 1019.67
1011.63 1011.41 1012.27 1012.45 1012.81 1013.19 1013.46 1013.70 1014.18 1014.61 1014.99 1015.35 1015.61 1015.80 1016.25 1017.02 1017.36 1017.25 1017.06 1016.52 1016.73 1017.14 1017.55 1017.81 1017.50 1017.53 1018.10 1018.10 1018.14 1018.53 1018.63 1019.04 1019.71 1019.63 1019.58 1019.59 1019.58 1019.30 1018.77 1018.28 1018.31 1018.77 1019.45
1011.91 1012.28 1012.48 1012.89 1013.18 1013.44 1013.82 1014.32 1014.72 1015.15 1015.68 1016.05 1016.48 1016.94 1017.29 1017.44 1017.83 1017.59 1017.35 1017.11 1017.15 1017.39 1018.08 1018.43 1018.58 1018.41 1018.38 1018.44 1018.52 1018.72 1019.06 1019.34 1019.41 1019.67 1019.40 1019.47 1019.61 1019.48 1019.45 1018.50 1018.37 1018.61 1019.30
1012.54 1012.59 1012.59 1012.96 1013.30 1013.88 1014.19 1014.84 1015.23 1015.71 1016.21 1016.71 1017.30 1017.61 1017.86 1018.07 1018.03 1017.84 1017.51 1017.42 1017.45 1017.67 1018.03 1018.67 1019.04 1018.84 1018.89 1019.02 1019.14 1019.32 1019.25 1019.82 1020.08 1020.05 1020.37 1020.34 1020.24 1020.00 1019.63 1020.01 1019.59 1019.10 1019.57
1013.34 1013.18 1012.80 1013.18 1013.49 1014.05 1014.69 1015.22 1015.75 1016.18 1016.65 1017.17 1017.50 1017.85 1018.15 1018.27 1018.33 1017.99 1017.90 1017.81 1018.07 1018.35 1018.79 1019.34 1019.60 1019.20 1018.99 1019.28 1019.58 1019.84 1020.22 1020.40 1020.65 1020.79 1020.69 1020.67 1020.63 1020.47 1020.36 1020.40 1020.53 1020.38 1020.43
1013.94 1013.75 1013.86 1014.00 1014.09 1014.61 1015.20 1015.72 1016.49 1016.87 1017.25 1017.50 1017.87 1018.16 1018.35 1018.81 1018.83 1018.69 1018.58 1018.74 1018.97 1019.23 1019.66 1020.01 1020.01 1019.93 1019.91 1020.02 1020.22 1020.50 1020.54 1020.74 1020.75 1020.95 1021.16 1021.29 1021.21 1021.13 1020.68 1020.48 1020.85 1021.00 1021.02
1014.29 1014.55 1014.49 1014.60 1014.87 1015.57 1015.73 1016.25 1016.71 1017.18 1017.75 1017.87 1017.97 1017.94 1018.12 1018.67 1018.98 1019.31 1019.38 1019.45 1019.48 1019.66 1019.89 1020.07 1020.25 1020.40 1020.37 1020.62 1020.84 1021.11 1020.92 1020.88 1020.88 1021.07 1021.09 1021.09 1020.71 1020.32 1020.43 1020.35 1020.33 1020.56 1020.72
1014.66 1014.88 1015.18 1015.50 1015.75 1015.99 1016.90 1017.13 1016.84 1017.92 1018.21 1017.67 1017.46 1017.56 1018.20 1018.96 1019.57 1019.59 1018.94 1018.83 1019.03 1019.47 1019.66 1019.71 1019.90 1020.32 1020.63 1020.68 1020.72 1020.65 1020.82 1020.75 1020.70 1020.56 1020.58 1020.65 1020.96 1020.89 1020.76 1020.75 1020.72 1020.63 1020.77
1014.59 1014.86 1015.10 1015.40 1015.81 1016.23 1016.73 1017.44 1018.13 1018.43 1018.55 1018.55 1018.51 1018.32 1019.29 1019.79 1020.15 1020.15 1020.03 1019.67 1019.73 1019.56 1018.76 1018.60 1018.90 1019.11 1019.37 1019.83 1019.98 1020.13 1020.53 1020.64 1020.68 1020.77 1020.83 1020.88 1021.04 1021.19 1021.24 1021.17 1021.10 1021.16 1021.33
1014.49 1014.57 1014.90 1014.98 1015.18 1015.74 1016.17 1016.56 1017.35 1018.80 1018.97 1019.13 1019.35 1019.55 1019.84 1020.35 1020.62 1020.58 1020.45 1020.37 1019.99 1019.44 1018.62 1018.75 1018.97 1019.18 1019.48 1019.61 1019.76 1019.88 1020.35 1020.87 1021.03 1020.93 1021.03 1021.12 1021.37 1021.64 1021.30 1021.35 1021.52 1021.64 1021.66
1014.33 1014.72 1014.73 1015.11 1015.13 1015.39 1015.60 1016.00 1016.47 1017.20 1017.83 1019.33 1019.87 1020.10 1020.19 1020.33 1020.67 1020.82 1020.55 1020.18 1019.37 1019.04 1018.69 1018.87 1019.13 1019.36 1019.67 1019.77 1019.83 1020.10 1020.46 1020.72 1021.04 1021.21 1021.28 1021.27 1021.40 1021.40 1021.41 1021.54 1021.61 1021.80 1022.05
1014.28 1014.42 1014.66 1014.82 1015.02 1015.55 1015.71 1015.84 1016.22 1016.78 1017.23 1018.51 1019.49 1020.18 1020.33 1020.47 1020.64 1020.59 1020.09 1018.94 1018.63 1018.77 1018.89 1019.07 1019.38 1019.73 1020.03 1020.19 1020.43 1020.60 1020.61 1020.80 1020.94 1020.98 1021.12 1021.25 1021.30 1021.32 1021.56 1021.82 1022.36 1022.60 1022.65
1014.28 1014.76 1014.54 1014.96 1015.60 1015.60 1015.48 1015.54 1016.06 1016.45 1016.92 1017.45 1017.73 1018.35 1019.27 1019.92 1019.51 1019.24 1019.06 1018.83 1018.49 1018.26 1018.72 1019.11 1019.40 1019.90 1020.43 1020.69 1020.94 1020.88 1021.12 1021.15 1021.29 1021.27 1021.31 1021.42 1021.46 1021.37 1021.50 1021.65 1021.70 1022.06 1022.37
1014.25 1014.98 1015.05 1014.92 1014.99 1015.12 1015.24 1015.41 1015.84 1016.15 1016.44 1016.81 1017.28 1017.99 1018.66 1018.06 1018.06 1018.20 1018.11 1018.49 1018.36 1018.49 1018.97 1019.07 1019.63 1020.10 1020.41 1020.66 1020.71 1020.81 1020.82 1020.88 1021.30 1021.43 1021.46 1021.94 1021.91 1021.71 1021.86 1022.03 1022.08 1022.15 1022.09
1013.71 1014.30 1014.62 1014.55 1014.90 1015.25 1015.38 1015.67 1015.96 1015.92 1016.08 1016.51 1016.95 1018.16 1018.62 1018.20 1017.64 1017.84 1017.99 1018.29 1018.39 1018.68 1018.85 1019.32 1019.57 1019.84 1020.13 1020.38 1020.52 1020.54 1020.70 1020.84 1021.25 1021.41 1021.54 1021.80 1021.96 1022.15 1022.04 1022.02 1022.06 1022.14 1022.27
1013.39 1013.70 1014.12 1014.35 1014.71 1015.08 1015.39 1015.27 1015.42 1015.56 1015.79 1015.97 1016.23 1016.63 1017.66 1017.49 1017.23 1017.41 1017.62 1017.85 1018.14 1018.33 1018.71 1019.03 1019.39 1019.72 1020.01 1020.13 1020.35 1020.56 1020.59 1020.65 1020.96 1021.23 1021.56 1021.77 1021.83 1022.00 1022.08 1022.08 1022.03 1021.95 1022.17
1013.09 1013.22 1013.57 1013.95 1014.34 1014.74 1014.88 1015.10 1015.18 1015.41 1015.13 1015.37 1015.68 1015.89 1016.19 1016.43 1016.63 1016.92 1017.27 1017.51 1017.72 1017.95 1018.40 1018.80 1018.98 1019.24 1019.66 1020.02 1020.21 1020.33 1020.52 1020.64 1020.95 1021.37 1021.58 1021.64 1021.76 1022.29 1021.95 1021.93 1021.97 1022.15 1022.44
1012.63 1012.83 1013.01 1013.45 1013.94 1014.17 1014.25 1014.36 1014.43 1014.58 1014.77 1014.94 1015.12 1015.59 1015.94 1016.14 1016.27 1016.50 1016.77 1017.04 1017.57 1017.92 1017.86 1018.36 1018.92 1019.06 1019.37 1019.59 1019.75 1019.97 1020.83 1021.24 1021.38 1021.30 1021.63 1021.60 1021.66 1022.09 1021.87 1021.84 1021.94 1022.15 1022.44
1012.25 1012.48 1012.66 1012.80 1013.08 1013.34 1013.58 1013.72 1013.91 1014.23 1014.41 1014.72 1015.49 1015.94 1016.02 1016.08 1016.02 1016.27 1016.51 1016.86 1017.14 1017.31 1017.59 1018.31 1018.60 1018.77 1018.76 1019.00 1019.71 1020.47 1020.88 1021.45 1021.71 1022.01 1021.45 1021.43 1021.56 1021.77 1021.87 1021.92 1021.97 1022.22 1022.62
Thickness
5777 5775 5774 5774 5773 5771 5769 5769 5769 5769 5769 5770 5771 5774 5772 5774 5771 5770 5772 5773 5771 5772 5772 5771 5770 5772 5775 5773 5774 5772 5770 5776 5770 5770 5772 5765 5760 5759 5756 5753 5752 5753 5748
5779 5775 5772 5773 5773 5771 5769 5769 5768 5767 5768 5767 5770 5772 5772 5773 5772 5772 5771 5776 5772 5770 5772 5771 5770 5776 5769 5771 5773 5767 5768 5769 5767 5760 5761 5762 5759 5754 5752 5752 5752 5751 5751
5776 5775 5773 5770 5770 5769 5769 5769 5769 5768 5767 5768 5768 5767 5770 5770 5769 5770 5770 5771 5771 5771 5770 5771 5772 5772 5768 5773 5770 5770 5767 5765 5764 5761 5757 5761 5757 5751 5747 5748 5747 5747 5745
5768 5772 5771 5769 5768 5769 5771 5769 5768 5768 5768 5768 5765 5766 5767 5768 5768 5770 5770 5767 5769 5771 5770 5771 5771 5771 5770 5768 5768 5766 5765 5759 5760 5758 5753 5752 5753 5749 5750 5746 5743 5746 5746
5760 5763 5766 5767 5768 5767 5768 5767 5767 5766 5765 5766 5765 5766 5766 5765 5766 5766 5766 5765 5765 5766 5768 5768 5767 5766 5762 5762 5765 5762 5756 5755 5754 5757 5758 5752 5750 5745 5740 5740 5737 5737 5732
5756 5757 5762 5763 5762 5763 5763 5762 5764 5761 5761 5762 5763 5762 5762 5762 5753 5752 5756 5762 5762 5762 5763 5765 5763 5757 5753 5752 5753 5751 5749 5750 5749 5747 5744 5743 5743 5746 5742 5736 5731 5728 5724
5750 5751 5752 5754 5753 5756 5758 5757 5759 5757 5759 5759 5758 5758 5759 5756 5745 5746 5750 5756 5757 5756 5753 5756 5756 5753 5752 5746 5742 5742 5740 5738 5738 5740 5740 5736 5739 5739 5738 5732 5728 5727 5721
5741 5740 5743 5746 5747 5749 5751 5750 5748 5750 5750 5750 5750 5750 5749 5742 5737 5739 5743 5749 5747 5746 5746 5745 5745 5744 5744 5744 5741 5736 5734 5732 5732 5731 5728 5727 5724 5725 5729 5729 5723 5716 5710
5730 5730 5735 5740 5740 5741 5740 5740 5740 5740 5739 5738 5738 5739 5737 5732 5729 5731 5734 5741 5739 5736 5733 5732 5737 5738 5730 5732 5732 5726 5726 5722 5716 5716 5715 5714 5713 5714 5717 5719 5716 5711 5702
5720 5725 5727 5729 5730 5730 5731 5730 5730 5730 5727 5726 5723 5722 5720 5721 5718 5720 5725 5730 5728 5727 5723 5721 5718 5721 5722 5723 5723 5719 5711 5711 5710 5707 5708 5705 5703 5703 5703 5707 5709 5702 5695
5714 5716 5720 5721 5723 5721 5721 5719 5718 5716 5715 5712 5709 5708 5707 5707 5710 5712 5716 5720 5719 5718 5716 5711 5709 5707 5710 5710 5708 5705 5704 5699 5695 5693 5689 5689 5689 5689 5690 5686 5687 5690 5683
5699 5703 5709 5712 5714 5711 5709 5706 5702 5702 5702 5700 5699 5697 5696 5697 5698 5703 5706 5707 5706 5703 5699 5696 5693 5695 5697 5695 5693 5689 5685 5683 5679 5676 5676 5674 5673 5673 5673 5671 5670 5670 5669
5689 5691 5695 5698 5701 5696 5694 5694 5690 5689 5688 5689 5687 5687 5687 5685 5686 5689 5690 5690 5688 5687 5683 5680 5680 5680 5680 5679 5677 5674 5671 5670 5668 5664 5660 5657 5659 5661 5663 5663 5659 5657 5655
5679 5682 5682 5686 5686 5681 5685 5683 5681 5680 5679 5679 5679 5681 5682 5677 5677 5677 5675 5674 5675 5675 5672 5669 5667 5665 5666 5665 5662 5658 5658 5656 5657 5653 5652 5653 5656 5658 5655 5655 5653 5650 5647
5675 5675 5674 5674 5674 5674 5667 5671 5677 5669 5669 5680 5680 5679 5675 5670 5665 5665 5669 5673 5672 5667 5666 5665 5663 5658 5655 5655 5654 5655 5652 5651 5650 5651 5650 5648 5644 5643 5642 5641 5639 5638 5634
5676 5676 5676 5674 5673 5672 5672 5667 5657 5657 5657 5659 5661 5668 5661 5655 5651 5652 5652 5655 5653 5657 5666 5668 5665 5664 5661 5656 5654 5651 5648 5645 5644 5641 5639 5637 5633 5629 5626 5626 5625 5621 5616
5675 5677 5676 5677 5677 5674 5674 5672 5666 5652 5648 5648 5647 5648 5648 5643 5642 5643 5644 5644 5647 5651 5658 5656 5654 5652 5649 5648 5645 5643 5638 5633 5630 5629 5626 5623 5619 5614 5615 5612 5608 5606 5604
5676 5670 5673 5668 5671 5670 5671 5669 5668 5662 5656 5643 5636 5638 5636 5637 5634 5632 5634 5636 5645 5646 5647 5644 5642 5640 5636 5635 5634 5631 5628 5625 5620 5616 5614 5612 5609 5606 5604 5601 5599 5596 5592
5674 5674 5671 5670 5668 5664 5663 5663 5661 5657 5654 5642 5634 5629 5628 5626 5625 5625 5628 5639 5639 5636 5635 5633 5631 5626 5623 5621 5618 5616 5615 5612 5610 5609 5606 5603 5601 5598 5593 5589 5582 5577 5576
5672 5670 5673 5668 5662 5664 5665 5664 5659 5655 5651 5647 5646 5640 5632 5625 5628 5628 5630 5630 5631 5632 5628 5623 5621 5617 5611 5608 5605 5604 5600 5599 5597 5595 5594 5591 5589 5588 5584 5581 5578 5573 5568
5672 5666 5664 5665 5665 5665 5663 5661 5657 5653 5650 5646 5643 5637 5627 5633 5633 5631 5630 5626 5626 5623 5618 5616 5611 5605 5602 5599 5597 5594 5593 5592 5587 5584 5582 5575 5574 5574 5570 5566 5563 5560 5557
5674 5668 5665 5665 5663 5659 5657 5653 5649 5650 5648 5643 5638 5628 5622 5628 5631 5628 5626 5622 5620 5616 5613 5608 5605 5601 5597 5593 5591 5589 5586 5583 5577 5574 5571 5566 5563 5558 5557 5554 5550 5546 5541
5674 5670 5666 5664 5661 5656 5654 5656 5653 5650 5647 5645 5642 5637 5627 5628 5629 5626 5624 5621 5616 5613 5608 5604 5599 5594 5590 5587 5584 5580 5577 5575 5569 5564 5559 5555 5552 5547 5543 5539 5536 5533 5528
5674 5671 5668 5664 5661 5656 5654 5651 5650 5645 5650 5647 5642 5639 5635 5632 5628 5623 5619 5616 5612 5607 5601 5597 5594 5590 5584 5579 5574 5571 5567 5563 5557 5551 5546 5542 5538 5530 5531 5527 5523 5518 5513
5672 5670 5668 5663 5658 5655 5654 5653 5652 5651 5649 5646 5642 5636 5632 5627 5623 5619 5615 5612 5605 5600 5599 5593 5587 5583 5578 5573 5568 5563 5555 5547 5540 5537 5530 5527 5524 5517 5516 5514 5511 5507 5502
5669 5666 5665 5664 5661 5659 5655 5653 5651 5648 5644 5640 5632 5626 5624 5620 5617 5613 5610 5606 5602 5598 5593 5585 5580 5575 5571 5566 5557 5550 5543 5534 5526 5521 5520 5515 5512 5508 5505 5503 5500 5496 5490